Weather History for Muscatine, IA

Change the Weather History Date:

Tuesday, November 8, 2011

  Actual Average Record
Temperature  
Mean Temperature 45 °F -  
Max Temperature 48 °F 51 °F 80 °F (1999)
Min Temperature 42 °F 34 °F 2 °F (1991)
Degree Days  
Heating Degree Days 20    
Moisture  
Dew Point 39 °F    
Average Humidity 82    
Maximum Humidity 87    
Minimum Humidity 71    
Precipitation  
Precipitation 0.87 in - - ()
Sea Level Pressure  
Sea Level Pressure 30.00 in    
Wind  
Wind Speed 14 mph (NE)    
Max Wind Speed 24 mph    
Max Gust Speed 31 mph    
Visibility 9 miles    
Events Rain    
Averages and records for this station are not official NWS values.
T = Trace of Precipitation, MM = Missing Value Source: NWS Daily Summary

Daily Weather History Graph

Daily Weather History Graph

Search for Another Location

Airport:

Trip Planner

Search our weather history database for the weather conditions in past years. The results will help you decide how hot, cold, wet, or windy it might be!

Date:

Astronomy

Nov. 08, 2011 Rise Set
Actual Time 6:44 AM CST 4:51 PM CST
Civil Twilight 6:14 AM CST 5:21 PM CST
Nautical Twilight 5:41 AM CST 5:54 PM CST
Astronomical Twilight 5:09 AM CST 6:26 PM CST
Moon 3:32 PM CST (11/8) 4:42 AM CST (11/8)
Length of Visible Light 11h 06m
Length of Day
10h 07m
Waxing Gibbous, 96% of the Moon is Illuminated
Nov 8
Waxing Gibbous
Nov 10
Full
Nov 18
Last Quarter
Nov 25
New
Dec 2
First Quarter

Hourly Weather History & Observations

Time (CST) Temp. Windchill Dew Point Humidity Pressure Visibility Wind Dir Wind Speed Gust Speed Precip Events Conditions
12:15 AM 48.2 °F - 39.2 °F 71% 30.08 in 10.0 mi ENE 9.2 mph - 0.01 in Rain Light Rain
12:35 AM 48.2 °F - 39.2 °F 71% 30.10 in 10.0 mi ENE 8.1 mph - 0.07 in Rain Rain
12:55 AM 46.4 °F 41.5 °F 39.2 °F 76% 30.08 in 5.0 mi NE 10.4 mph - 0.17 in Rain Light Rain
1:15 AM 44.6 °F 39.7 °F 39.2 °F 81% 30.08 in 10.0 mi NE 9.2 mph - 0.07 in Rain Rain
1:35 AM 44.6 °F 39.2 °F 39.2 °F 81% 30.07 in 7.0 mi NE 10.4 mph 18.4 mph 0.14 in Rain Rain
1:55 AM 44.6 °F 36.9 °F 39.2 °F 81% 30.04 in 7.0 mi NE 18.4 mph 23.0 mph 0.23 in Rain Rain
2:15 AM 44.6 °F 37.4 °F 39.2 °F 81% 30.03 in 7.0 mi ENE 16.1 mph 23.0 mph 0.10 in Rain Rain
2:35 AM 44.6 °F 38.4 °F 39.2 °F 81% 30.02 in 7.0 mi NE 12.7 mph 16.1 mph 0.14 in Rain Light Rain
2:55 AM 44.6 °F 37.2 °F 39.2 °F 81% 30.02 in 7.0 mi NE 17.3 mph 21.9 mph 0.17 in Rain Light Rain
3:15 AM 44.6 °F 37.2 °F 39.2 °F 81% 30.01 in 7.0 mi NE 17.3 mph 21.9 mph 0.03 in Rain Light Rain
3:35 AM 44.6 °F 37.2 °F 41.0 °F 87% 30.01 in 10.0 mi NE 17.3 mph - 0.06 in Rain Light Rain
3:55 AM 44.6 °F 38.1 °F 41.0 °F 87% 30.02 in 10.0 mi NE 13.8 mph 20.7 mph 0.09 in Rain Light Rain
4:15 AM 44.6 °F 38.4 °F 39.2 °F 81% 30.03 in 10.0 mi NE 12.7 mph 21.9 mph 0.03 in Rain Light Rain
4:35 AM 44.6 °F 37.2 °F 39.2 °F 81% 30.01 in 7.0 mi NE 17.3 mph 21.9 mph 0.07 in Rain Light Rain
4:55 AM 44.6 °F 37.2 °F 39.2 °F 81% 30.00 in 7.0 mi NE 17.3 mph - 0.09 in Rain Light Rain
5:15 AM 44.6 °F 35.7 °F 39.2 °F 81% 29.98 in 7.0 mi ENE 24.2 mph 31.1 mph 0.02 in Rain Light Rain
5:35 AM 44.6 °F 37.2 °F 39.2 °F 81% 29.97 in 7.0 mi ENE 17.3 mph 26.5 mph 0.04 in Rain Light Rain
5:55 AM 44.6 °F 37.4 °F 39.2 °F 81% 29.99 in 10.0 mi NE 16.1 mph 25.3 mph 0.06 in Rain Rain
6:15 AM 44.6 °F 37.2 °F 39.2 °F 81% 29.97 in 7.0 mi NE 17.3 mph 23.0 mph 0.02 in Rain Light Rain
6:35 AM 44.6 °F 37.2 °F 39.2 °F 81% 29.96 in 10.0 mi NE 17.3 mph 21.9 mph 0.05 in Rain Light Rain
6:55 AM 44.6 °F 37.8 °F 39.2 °F 81% 29.94 in 10.0 mi NE 15.0 mph 25.3 mph 0.05 in   Light Drizzle
7:15 AM 44.6 °F 38.1 °F 39.2 °F 81% 29.94 in 7.0 mi ENE 13.8 mph 18.4 mph N/A   Light Drizzle
7:35 AM 44.6 °F 37.4 °F 41.0 °F 87% 29.94 in 10.0 mi NE 16.1 mph 21.9 mph N/A   Light Drizzle
7:55 AM 44.6 °F 37.4 °F 41.0 °F 87% 29.98 in 10.0 mi North 16.1 mph - N/A   Overcast
8:15 AM 44.6 °F 37.2 °F 39.2 °F 81% 29.99 in 10.0 mi North 17.3 mph - N/A   Overcast
8:35 AM 44.6 °F 37.8 °F 39.2 °F 81% 30.00 in 5.0 mi North 15.0 mph 18.4 mph N/A   Drizzle
8:55 AM 42.8 °F 35.4 °F 39.2 °F 87% 29.99 in 4.0 mi NNE 15.0 mph - 0.01 in Rain Light Rain
9:15 AM 42.8 °F 35.1 °F 37.4 °F 81% 29.99 in 5.0 mi NNE 16.1 mph 23.0 mph N/A Rain Light Rain
9:35 AM 42.8 °F 35.1 °F 37.4 °F 81% 29.99 in 5.0 mi NNE 16.1 mph - N/A Rain Light Rain
9:55 AM 42.8 °F 35.1 °F 37.4 °F 81% 30.00 in 7.0 mi NNE 16.1 mph - N/A   Overcast
10:15 AM 42.8 °F 35.4 °F 37.4 °F 81% 30.00 in 10.0 mi NNE 15.0 mph - N/A   Overcast
10:35 AM 42.8 °F 35.4 °F 39.2 °F 87% 30.00 in 10.0 mi NNE 15.0 mph 19.6 mph N/A   Overcast
10:55 AM 42.8 °F 35.4 °F 39.2 °F 87% 30.00 in 10.0 mi NNE 15.0 mph - N/A   Overcast
11:15 AM 42.8 °F 35.4 °F 39.2 °F 87% 29.99 in 10.0 mi NNE 15.0 mph - N/A   Overcast
11:35 AM 42.8 °F 34.8 °F 39.2 °F 87% 29.99 in 10.0 mi NNE 17.3 mph 20.7 mph N/A   Overcast
11:55 AM 44.6 °F 37.4 °F 39.2 °F 81% 29.97 in 10.0 mi NNE 16.1 mph 23.0 mph N/A   Overcast
12:15 PM 44.6 °F 38.4 °F 39.2 °F 81% 29.99 in 10.0 mi NNE 12.7 mph - N/A   Overcast
12:35 PM 44.6 °F 37.4 °F 39.2 °F 81% 29.99 in 10.0 mi NE 16.1 mph - N/A   Overcast
12:55 PM 44.6 °F 38.4 °F 39.2 °F 81% 29.99 in 10.0 mi NNE 12.7 mph - N/A   Overcast
1:15 PM 44.6 °F 39.2 °F 39.2 °F 81% 30.00 in 10.0 mi NNE 10.4 mph - N/A   Overcast
1:35 PM 44.6 °F 37.4 °F 39.2 °F 81% 29.99 in 10.0 mi NNE 16.1 mph - N/A   Overcast
1:55 PM 44.6 °F 38.1 °F 39.2 °F 81% 29.97 in 10.0 mi NNE 13.8 mph 17.3 mph N/A   Overcast
2:15 PM 44.6 °F 38.1 °F 39.2 °F 81% 29.97 in 10.0 mi NNE 13.8 mph - N/A   Overcast
2:35 PM 44.6 °F 38.1 °F 39.2 °F 81% 29.98 in 10.0 mi NNE 13.8 mph - N/A   Overcast
2:55 PM 44.6 °F 37.4 °F 39.2 °F 81% 29.97 in 10.0 mi NNE 16.1 mph - N/A   Overcast
3:15 PM 44.6 °F 37.4 °F 39.2 °F 81% 29.97 in 10.0 mi NNE 16.1 mph 19.6 mph N/A   Overcast
3:35 PM 44.6 °F 38.4 °F 39.2 °F 81% 29.97 in 10.0 mi NNE 12.7 mph 17.3 mph N/A   Overcast
3:55 PM 44.6 °F 37.8 °F 39.2 °F 81% 29.96 in 10.0 mi NNE 15.0 mph - N/A   Overcast
4:15 PM 44.6 °F 39.2 °F 39.2 °F 81% 29.98 in 10.0 mi NE 10.4 mph - N/A   Overcast
4:35 PM 44.6 °F 38.1 °F 39.2 °F 81% 29.97 in 10.0 mi NE 13.8 mph 19.6 mph N/A   Overcast
4:55 PM 44.6 °F 37.8 °F 39.2 °F 81% 29.97 in 10.0 mi NE 15.0 mph 19.6 mph N/A   Overcast
5:15 PM 44.6 °F 38.4 °F 39.2 °F 81% 29.98 in 10.0 mi NE 12.7 mph - N/A   Overcast
5:35 PM 44.6 °F 38.4 °F 39.2 °F 81% 29.99 in 10.0 mi NE 12.7 mph 16.1 mph N/A   Overcast
5:55 PM 44.6 °F 38.1 °F 39.2 °F 81% 29.99 in 10.0 mi NE 13.8 mph - N/A   Overcast
6:15 PM 44.6 °F 38.1 °F 39.2 °F 81% 29.99 in 7.0 mi NE 13.8 mph - N/A Rain Rain
6:35 PM 44.6 °F 38.8 °F 39.2 °F 81% 29.98 in 10.0 mi NE 11.5 mph - N/A Rain Light Rain
6:55 PM 44.6 °F 38.4 °F 39.2 °F 81% 29.99 in 10.0 mi NE 12.7 mph 19.6 mph N/A Rain Light Rain
7:35 PM 44.6 °F 38.4 °F 39.2 °F 81% 29.98 in 7.0 mi NE 12.7 mph - 0.01 in Rain Light Rain
7:55 PM 44.6 °F 38.1 °F 39.2 °F 81% 29.97 in 5.0 mi NE 13.8 mph - 0.02 in   Drizzle
8:15 PM 44.6 °F 38.4 °F 39.2 °F 81% 29.96 in 5.0 mi NE 12.7 mph - N/A   Drizzle
8:35 PM 44.6 °F 38.4 °F 39.2 °F 81% 29.96 in 7.0 mi NE 12.7 mph 17.3 mph 0.01 in   Light Drizzle
8:55 PM 44.6 °F 38.4 °F 39.2 °F 81% 29.95 in 5.0 mi NE 12.7 mph 17.3 mph 0.01 in Rain Rain
9:15 PM 44.6 °F 38.1 °F 39.2 °F 81% 29.93 in 5.0 mi NE 13.8 mph - N/A Rain Light Rain
9:35 PM 44.6 °F 38.8 °F 39.2 °F 81% 29.94 in 5.0 mi NE 11.5 mph - 0.02 in Rain Light Rain
9:55 PM 44.6 °F 38.4 °F 39.2 °F 81% 29.92 in 5.0 mi NE 12.7 mph - 0.05 in Rain Light Rain
10:15 PM 44.6 °F 38.1 °F 39.2 °F 81% 29.91 in 4.0 mi NE 13.8 mph - N/A   Drizzle
10:35 PM 44.6 °F 38.4 °F 39.2 °F 81% 29.89 in 5.0 mi NE 12.7 mph 18.4 mph 0.01 in Rain Light Rain
10:55 PM 44.6 °F 38.1 °F 39.2 °F 81% 29.87 in 5.0 mi NE 13.8 mph 20.7 mph 0.02 in   Light Drizzle
11:15 PM 44.6 °F 37.4 °F 39.2 °F 81% 29.86 in 10.0 mi NE 16.1 mph 19.6 mph N/A   Overcast
11:35 PM 44.6 °F 37.4 °F 39.2 °F 81% 29.85 in 5.0 mi NE 16.1 mph - N/A Rain Rain
11:55 PM 44.6 °F 37.8 °F 39.2 °F 81% 29.84 in 3.0 mi NE 15.0 mph - 0.02 in Rain Light Rain